User: anonymous   Login
Location: Lake Arresoe
(56.0000°N, 12.5000°E)
Time: 13:00:51
(UTC+02:00)
Language:

BUGSAT 1 - Orbit

View from above orbital plane
View from above orbital plane
View from above satellite
View from above satellite

Ground track
Ground track

The orbit data is extracted from the following two-line orbital elements,

1 40014U 14033E   24170.13687179  .00006698  00000-0  48226-3 0  9990
2 40014  98.1248 211.7826 0036453 130.2649 230.1772 15.04019850545791
Epoch (UTC): 18 June 2024 03:17:05
Eccentricity: 0.0036453
inclination: 98.1248°
perigee height: 529 km
apogee height: 580 km
right ascension of ascending node: 211.7826°
argument of perigee: 130.2649°
revolutions per day: 15.04019850
mean anomaly at epoch: 230.1772°
orbit number at epoch: 54579

The dashed part of the orbit path shows where the satellite is in the earth's shadow,  

DLR